Location: Essen
(51.4609°N, 7.0127°E)
Time: 14:56:27
(UTC+01:00)

ISS - Pass Details

Date: 13 January 2018
Orbit: 402 x 407 km, 51.6° (Epoch: 18 January)

Event Time Altitude Azimuth Distance (km) Brightness Sun altitude
Exits shadow 07:06:34 13° 241° (WSW) 1,292 -1.7 -12.8°
Maximum altitude 07:07:37 15° 220° (SW) 1,210 -1.6 -12.6°
Drops below altitude 10° 07:09:32 10° 183° (S) 1,462 -0.8 -12.3°
Sets 07:12:15 0° 159° (SSE) 2,318 0.7 -11.9°
